QPF
0.02 0.02 0.02 0.01 0.00 0.00 0.00 0.00 0.00 0.00 0.00 0.00 0.00 0.00 0.00 0.00 0.00 0.00 0.00 0.00 0.00 0.00 0.00 0.00 0.00 0.00 0.00 0.00 0.01 0.01 0.01 0.00 0.00 0.00 0.00 0.00 0.00 0.00
0.02 0.01 0.00 0.00 0.00 0.00 0.00 0.00 0.00 0.01 0.01 0.00 0.00 0.00 0.00 0.00 0.00 0.00 0.00 0.00 0.00 0.00 0.00 0.00 0.00 0.00 0.00 0.00 0.01 0.02 0.02 0.01 0.00 0.00 0.00 0.00 0.00 0.00
0.01 0.01 0.00 0.00 0.00 0.00 0.00 0.00 0.00 0.00 0.00 0.00 0.00 0.00 0.00 0.00 0.00 0.00 0.00 0.00 0.00 0.00 0.00 0.00 0.00 0.00 0.00 0.00 0.00 0.01 0.02 0.01 0.01 0.01 0.00 0.00 0.00 0.00
0.01 0.00 0.00 0.00 0.00 0.00 0.00 0.00 0.00 0.00 0.00 0.00 0.00 0.00 0.00 0.00 0.00 0.00 0.00 0.00 0.00 0.00 0.00 0.00 0.00 0.00 0.00 0.00 0.00 0.00 0.00 0.01 0.01 0.01 0.02 0.01 0.00 0.00
0.01 0.01 0.02 0.02 0.01 0.01 0.01 0.00 0.00 0.00 0.00 0.00 0.00 0.00 0.00 0.00 0.00 0.00 0.00 0.00 0.00 0.00 0.00 0.00 0.00 0.00 0.00 0.00 0.00 0.00 0.00 0.00 0.01 0.01 0.01 0.00 0.00 0.00
0.00 0.00 0.01 0.01 0.00 0.00 0.00 0.00 0.00 0.00 0.00 0.00 0.00 0.00 0.00 0.00 0.00 0.00 0.00 0.00 0.00 0.00 0.00 0.00 0.00 0.00 0.00 0.00 0.00 0.00 0.01 0.03 0.05 0.06 0.06 0.02 0.00 0.00
0.01 0.01 0.02 0.03 0.01 0.01 0.00 0.00 0.00 0.00 0.00 0.00 0.00 0.00 0.00 0.00 0.00 0.00 0.00 0.00 0.00 0.00 0.00 0.00 0.00 0.00 0.00 0.00 0.00 0.00 0.03 0.07 0.08 0.08 0.08 0.03 0.00 0.00
0.02 0.02 0.02 0.03 0.01 0.00 0.00 0.00 0.00 0.00 0.00 0.00 0.00 0.00 0.00 0.00 0.00 0.00 0.00 0.00 0.00 0.00 0.00 0.00 0.00 0.00 0.00 0.00 0.00 0.00 0.00 0.01 0.02 0.03 0.02 0.02 0.00 0.00
0.03 0.02 0.01 0.00 0.00 0.00 0.00 0.00 0.00 0.00 0.00 0.00 0.00 0.00 0.00 0.00 0.00 0.00 0.00 0.00 0.00 0.00 0.00 0.00 0.00 0.00 0.00 0.00 0.00 0.00 0.01 0.04 0.03 0.02 0.01 0.00 0.00 0.00
0.01 0.01 0.00 0.00 0.00 0.00 0.00 0.00 0.00 0.00 0.00 0.00 0.00 0.00 0.00 0.00 0.00 0.00 0.00 0.00 0.00 0.00 0.00 0.00 0.00 0.00 0.00 0.00 0.00 0.00 0.02 0.03 0.03 0.01 0.00 0.00 0.00 0.00
0.00 0.00 0.00 0.00 0.00 0.00 0.00 0.00 0.00 0.00 0.00 0.00 0.00 0.00 0.00 0.00 0.00 0.00 0.00 0.00 0.00 0.00 0.00 0.00 0.00 0.00 0.00 0.00 0.00 0.00 0.00 0.00 0.00 0.00 0.00 0.00 0.00 0.00
0.00 0.00 0.01 0.00 0.00 0.00 0.00 0.00 0.00 0.00 0.00 0.00 0.00 0.00 0.00 0.00 0.00 0.00 0.00 0.00 0.00 0.01 0.00 0.00 0.00 0.01 0.02 0.00 0.00 0.00 0.00 0.00 0.00 0.00 0.00 0.00 0.00 0.00
0.00 0.00 0.00 0.00 0.00 0.00 0.00 0.00 0.00 0.00 0.00 0.00 0.00 0.00 0.00 0.00 0.00 0.00 0.00 0.00 0.00 0.01 0.00 0.02 0.01 0.01 0.03 0.01 0.00 0.00 0.00 0.00 0.00 0.00 0.00 0.00 0.00 0.00
0.00 0.00 0.00 0.00 0.00 0.00 0.00 0.00 0.00 0.00 0.00 0.00 0.00 0.00 0.00 0.00 0.00 0.00 0.00 0.00 0.00 0.01 0.00 0.02 0.08 0.03 0.03 0.05 0.04 0.00 0.00 0.00 0.00 0.00 0.00 0.00 0.00 0.00
0.00 0.00 0.00 0.00 0.00 0.00 0.00 0.00 0.00 0.00 0.00 0.00 0.00 0.00 0.00 0.00 0.00 0.00 0.00 0.00 0.00 0.00 0.00 0.01 0.04 0.03 0.05 0.06 0.03 0.00 0.00 0.00 0.00 0.00 0.00 0.00 0.00 0.00
0.00 0.00 0.00 0.00 0.00 0.00 0.00 0.00 0.00 0.00 0.00 0.00 0.00 0.00 0.00 0.00 0.00 0.00 0.00 0.00 0.00 0.00 0.00 0.01 0.02 0.03 0.03 0.03 0.04 0.02 0.00 0.00 0.00 0.00 0.00 0.00 0.00 0.00
0.01 0.00 0.00 0.00 0.00 0.00 0.00 0.00 0.00 0.00 0.00 0.00 0.00 0.00 0.00 0.00 0.00 0.00 0.00 0.00 0.00 0.00 0.00 0.00 0.02 0.04 0.02 0.02 0.03 0.01 0.00 0.00 0.00 0.00 0.00 0.00 0.00 0.00
0.00 0.00 0.00 0.00 0.00 0.00 0.00 0.00 0.00 0.00 0.00 0.00 0.00 0.00 0.00 0.00 0.00 0.00 0.00 0.00 0.00 0.00 0.00 0.01 0.03 0.05 0.02 0.01 0.00 0.00 0.00 0.00 0.00 0.00 0.00 0.00 0.00 0.00
0.00 0.00 0.00 0.00 0.00 0.00 0.00 0.00 0.00 0.00 0.00 0.00 0.00 0.00 0.00 0.00 0.00 0.00 0.00 0.00 0.00 0.00 0.00 0.01 0.05 0.07 0.06 0.01 0.00 0.00 0.00 0.00 0.00 0.00 0.00 0.00 0.00 0.00
0.01 0.01 0.01 0.01 0.01 0.00 0.00 0.00 0.00 0.00 0.00 0.00 0.00 0.00 0.00 0.00 0.00 0.00 0.00 0.00 0.00 0.00 0.00 0.01 0.04 0.07 0.10 0.04 0.02 0.00 0.00 0.00 0.00 0.00 0.00 0.00 0.00 0.00
0.03 0.03 0.02 0.02 0.02 0.01 0.01 0.00 0.00 0.00 0.00 0.00 0.00 0.00 0.00 0.00 0.00 0.00 0.00 0.00 0.00 0.00 0.01 0.00 0.01 0.03 0.07 0.08 0.06 0.00 0.00 0.00 0.00 0.00 0.00 0.00 0.00 0.00
0.03 0.03 0.03 0.02 0.01 0.01 0.00 0.00 0.00 0.00 0.00 0.00 0.00 0.00 0.00 0.00 0.00 0.00 0.00 0.00 0.00 0.00 0.01 0.01 0.01 0.02 0.05 0.04 0.02 0.00 0.00 0.00 0.00 0.00 0.00 0.00 0.00 0.00
0.02 0.02 0.02 0.01 0.00 0.00 0.00 0.00 0.00 0.00 0.00 0.00 0.00 0.00 0.00 0.00 0.00 0.00 0.00 0.00 0.00 0.00 0.01 0.02 0.02 0.03 0.03 0.02 0.03 0.03 0.00 0.00 0.00 0.00 0.00 0.00 0.00 0.00
MSLP
1019.92 1020.28 1020.79 1021.15 1021.58 1021.95 1022.30 1022.64 1023.16 1024.24 1024.61 1024.50 1024.63 1024.37 1024.31 1024.47 1024.42 1024.65 1024.74 1024.62 1024.54 1024.50 1024.50 1024.37 1024.32 1023.99 1023.93 1023.87 1023.67 1023.53 1023.52 1023.81 1023.97 1024.23 1024.38 1024.67 1024.70 1024.80
1019.54 1019.90 1020.19 1020.68 1021.18 1021.75 1022.10 1022.44 1022.84 1023.50 1024.17 1024.06 1024.41 1024.30 1024.22 1024.34 1024.40 1024.37 1024.35 1024.49 1024.35 1024.29 1024.15 1024.09 1023.84 1023.72 1023.37 1023.28 1023.13 1022.83 1022.77 1022.97 1023.21 1023.83 1023.44 1023.66 1023.73 1023.99
1019.18 1019.54 1019.99 1020.45 1021.02 1021.51 1021.91 1022.27 1022.88 1023.32 1024.04 1024.28 1024.46 1024.46 1024.53 1024.44 1024.16 1024.11 1024.29 1024.32 1024.12 1023.89 1023.66 1023.62 1023.30 1023.23 1022.74 1022.58 1022.32 1022.20 1022.05 1021.96 1022.10 1022.79 1022.59 1022.61 1022.44 1022.87
1018.50 1019.07 1019.52 1020.14 1020.47 1020.90 1021.69 1022.24 1022.63 1023.10 1023.58 1024.31 1024.57 1024.67 1024.59 1024.18 1024.22 1024.32 1024.12 1023.87 1023.80 1023.53 1023.17 1022.87 1022.56 1022.34 1022.02 1021.85 1021.52 1021.29 1021.11 1020.89 1020.89 1021.18 1021.65 1021.89 1021.63 1021.88
1017.65 1018.26 1018.87 1019.61 1020.30 1021.00 1021.42 1022.43 1022.78 1023.34 1023.71 1024.17 1024.54 1024.63 1024.44 1024.20 1024.13 1024.03 1023.88 1023.60 1023.25 1022.80 1022.50 1022.27 1021.85 1021.45 1021.25 1020.86 1020.56 1020.41 1020.16 1019.96 1019.80 1019.99 1020.48 1020.54 1020.60 1021.17
1017.37 1018.00 1018.59 1019.15 1019.64 1020.65 1021.37 1022.28 1022.94 1023.35 1023.65 1024.04 1024.32 1024.48 1024.49 1024.15 1024.04 1023.94 1023.57 1023.32 1022.98 1022.48 1022.03 1021.84 1021.31 1021.05 1020.65 1020.12 1019.74 1019.46 1019.12 1018.85 1018.73 1018.90 1019.31 1019.83 1020.22 1020.84
1017.21 1017.81 1018.50 1019.18 1019.74 1020.44 1021.47 1021.88 1022.69 1022.95 1023.55 1023.98 1024.46 1024.60 1024.50 1024.34 1024.27 1023.98 1023.60 1023.14 1022.75 1022.09 1021.65 1021.48 1021.11 1020.87 1020.36 1019.70 1019.14 1018.60 1018.26 1018.01 1017.93 1018.19 1018.77 1019.14 1019.50 1019.98
1017.17 1017.99 1018.64 1019.30 1020.31 1020.84 1021.37 1021.80 1022.33 1022.91 1023.44 1024.06 1024.43 1024.50 1024.47 1024.44 1024.24 1024.06 1023.70 1023.33 1022.73 1021.82 1021.59 1021.02 1021.24 1020.38 1019.81 1019.23 1018.68 1018.15 1017.74 1017.38 1017.22 1017.77 1018.35 1018.78 1018.83 1018.87
1017.24 1018.09 1019.06 1020.09 1020.56 1021.29 1021.90 1022.31 1022.94 1023.04 1023.38 1023.91 1024.21 1024.33 1024.34 1024.25 1024.22 1023.81 1023.51 1023.33 1022.79 1021.95 1021.70 1020.19 1020.36 1019.58 1018.92 1018.33 1017.85 1017.44 1017.19 1016.96 1017.12 1017.49 1017.79 1017.88 1017.91 1018.14
1017.27 1018.16 1019.24 1020.32 1020.96 1021.51 1022.03 1022.59 1022.81 1023.13 1023.51 1023.71 1023.99 1024.02 1024.10 1023.98 1023.88 1023.54 1023.12 1022.66 1022.06 1021.61 1021.64 1020.16 1019.43 1018.69 1017.94 1017.46 1017.11 1016.90 1016.79 1016.70 1016.72 1016.98 1017.25 1017.13 1017.39 1017.80
1018.42 1019.07 1019.72 1020.54 1021.25 1021.71 1022.06 1022.34 1022.89 1023.13 1023.30 1023.44 1023.45 1023.40 1023.33 1023.26 1023.17 1023.07 1022.80 1022.40 1021.27 1020.81 1020.66 1019.96 1018.75 1018.28 1017.59 1016.84 1016.27 1016.15 1016.00 1016.17 1016.39 1016.44 1016.48 1016.84 1017.24 1017.58
1019.40 1020.02 1020.44 1020.82 1021.29 1021.63 1021.90 1022.41 1022.84 1023.35 1023.54 1023.61 1023.51 1023.37 1023.27 1023.12 1022.95 1022.85 1022.66 1022.38 1021.95 1020.26 1019.39 1019.52 1018.53 1018.47 1017.39 1016.39 1016.14 1015.94 1015.82 1015.74 1015.91 1015.90 1016.32 1016.69 1016.93 1017.12
1019.47 1020.28 1020.67 1020.97 1021.23 1021.50 1021.87 1022.28 1022.69 1023.39 1023.54 1023.51 1023.44 1023.22 1023.12 1023.06 1022.98 1022.77 1022.65 1022.46 1021.90 1021.02 1019.66 1019.59 1018.17 1017.74 1017.58 1016.72 1016.22 1016.00 1015.93 1015.62 1015.69 1015.88 1016.23 1016.43 1016.57 1016.71
1019.53 1020.32 1020.70 1020.97 1021.29 1021.71 1022.11 1022.26 1022.86 1023.35 1023.50 1023.62 1023.51 1023.40 1023.39 1023.20 1022.98 1022.74 1022.26 1021.87 1021.45 1020.51 1019.15 1019.28 1018.03 1017.06 1016.68 1016.34 1016.30 1015.98 1015.84 1015.72 1015.67 1015.86 1016.08 1016.15 1016.27 1016.29
1019.86 1020.43 1020.82 1021.22 1021.71 1022.06 1022.27 1022.58 1023.12 1023.40 1023.58 1023.72 1023.70 1023.76 1023.60 1023.32 1022.83 1022.32 1021.80 1021.26 1020.46 1019.55 1018.49 1017.46 1016.66 1016.21 1016.04 1015.95 1015.77 1015.66 1015.57 1015.47 1015.46 1015.61 1015.76 1015.88 1015.93 1016.02
1020.44 1020.95 1021.38 1021.62 1022.09 1022.44 1022.60 1023.06 1023.39 1023.58 1023.83 1023.87 1024.00 1023.87 1023.61 1023.21 1022.64 1022.10 1021.55 1020.74 1019.76 1018.19 1017.64 1016.59 1015.53 1015.11 1015.02 1015.24 1015.37 1015.10 1015.27 1015.27 1015.14 1015.30 1015.46 1015.53 1015.55 1015.61
1020.80 1021.39 1021.82 1022.16 1022.30 1022.59 1023.00 1023.36 1023.66 1023.77 1023.91 1024.11 1024.09 1023.76 1023.48 1023.17 1022.63 1022.11 1021.52 1020.67 1020.05 1018.66 1017.27 1016.32 1015.35 1014.41 1014.25 1014.35 1014.50 1014.47 1014.67 1014.83 1014.80 1014.91 1015.23 1015.14 1014.89 1014.80
1020.98 1021.65 1022.07 1022.39 1022.56 1022.83 1023.17 1023.42 1023.71 1023.97 1024.07 1024.19 1024.11 1023.75 1023.46 1023.19 1022.67 1022.27 1021.55 1020.90 1020.00 1019.12 1018.12 1016.98 1016.00 1014.50 1013.75 1013.55 1013.50 1013.62 1013.85 1013.97 1014.11 1014.35 1014.58 1014.73 1014.34 1014.16
1021.32 1021.87 1022.26 1022.62 1022.91 1023.10 1023.33 1023.61 1023.91 1024.15 1024.29 1024.23 1024.10 1023.82 1023.76 1023.38 1022.82 1022.26 1021.72 1021.04 1020.07 1019.13 1018.06 1016.99 1016.00 1014.95 1013.58 1013.10 1012.55 1012.69 1012.91 1013.18 1013.54 1013.80 1013.92 1014.04 1013.93 1013.75
1021.78 1022.23 1022.60 1022.87 1023.07 1023.34 1023.65 1023.86 1024.08 1024.28 1024.42 1024.36 1024.20 1024.00 1023.86 1023.47 1022.92 1022.42 1021.69 1020.96 1020.26 1019.15 1017.65 1016.43 1015.68 1015.13 1014.74 1013.38 1012.53 1012.08 1012.10 1012.47 1012.90 1013.17 1013.42 1013.57 1013.56 1013.45
1022.16 1022.49 1022.83 1023.17 1023.45 1023.74 1024.01 1024.26 1024.36 1024.49 1024.45 1024.43 1024.24 1023.98 1023.74 1023.51 1023.01 1022.34 1021.62 1021.04 1020.49 1019.37 1017.90 1016.50 1015.80 1015.26 1014.23 1013.22 1012.26 1012.04 1011.71 1011.91 1012.18 1012.52 1012.86 1013.13 1013.19 1013.21
1022.80 1022.99 1023.31 1023.67 1023.91 1024.06 1024.21 1024.35 1024.47 1024.46 1024.36 1024.19 1023.96 1023.85 1023.56 1023.35 1022.70 1022.00 1021.41 1020.71 1019.85 1019.11 1017.99 1016.57 1015.69 1014.55 1013.63 1012.41 1011.60 1011.54 1011.72 1011.82 1011.87 1012.01 1012.27 1012.30 1012.61 1012.54
1023.55 1023.80 1024.09 1024.28 1024.39 1024.50 1024.57 1024.59 1024.62 1024.52 1024.38 1024.16 1023.91 1023.54 1023.16 1022.84 1022.18 1021.66 1021.23 1020.89 1019.73 1018.88 1017.92 1016.44 1015.53 1014.55 1013.43 1012.40 1011.28 1011.14 1011.40 1011.51 1011.68 1011.89 1011.90 1011.78 1011.94 1012.18
Thickness
5565 5561 5556 5551 5545 5541 5537 5532 5528 5517 5510 5507 5499 5494 5489 5484 5478 5471 5464 5458 5453 5447 5440 5433 5423 5418 5409 5400 5393 5383 5370 5355 5341 5327 5316 5298 5289 5283
5561 5557 5553 5546 5540 5534 5529 5525 5520 5512 5504 5499 5490 5484 5478 5470 5464 5459 5453 5446 5439 5431 5425 5417 5411 5402 5396 5385 5376 5369 5356 5339 5322 5300 5291 5283 5274 5268
5555 5550 5544 5538 5532 5527 5522 5516 5508 5501 5491 5486 5479 5472 5465 5459 5454 5447 5439 5432 5426 5419 5412 5403 5396 5386 5382 5372 5363 5353 5342 5328 5313 5294 5282 5275 5268 5261
5551 5545 5539 5532 5528 5523 5514 5506 5500 5491 5483 5473 5465 5458 5452 5448 5441 5433 5425 5418 5411 5404 5398 5391 5384 5377 5368 5358 5351 5340 5328 5317 5302 5288 5275 5270 5262 5252
5548 5542 5534 5526 5518 5510 5504 5492 5485 5476 5469 5461 5452 5443 5438 5433 5427 5421 5415 5408 5400 5393 5385 5377 5371 5363 5353 5346 5337 5325 5313 5301 5292 5279 5268 5260 5255 5245
5540 5532 5526 5519 5513 5502 5492 5480 5470 5461 5454 5446 5437 5431 5424 5418 5412 5407 5404 5395 5388 5379 5373 5363 5358 5349 5340 5334 5323 5312 5302 5291 5280 5270 5260 5251 5246 5237
5531 5524 5515 5507 5500 5490 5478 5470 5458 5450 5440 5431 5420 5411 5405 5400 5394 5389 5386 5381 5374 5366 5362 5350 5346 5336 5324 5315 5305 5298 5287 5275 5267 5259 5250 5243 5235 5228
5520 5510 5502 5493 5481 5473 5464 5456 5447 5435 5425 5412 5403 5396 5388 5381 5375 5368 5362 5359 5356 5351 5344 5340 5320 5319 5309 5300 5290 5281 5271 5263 5256 5246 5237 5229 5224 5223
5506 5496 5485 5473 5465 5456 5446 5438 5427 5418 5408 5398 5387 5378 5371 5362 5356 5351 5343 5337 5330 5326 5317 5330 5309 5307 5296 5287 5277 5265 5254 5248 5240 5231 5225 5219 5217 5215
5494 5484 5470 5457 5448 5440 5430 5420 5411 5401 5390 5381 5371 5362 5354 5345 5337 5331 5326 5324 5319 5308 5291 5301 5295 5293 5285 5272 5260 5251 5242 5235 5228 5221 5215 5213 5210 5206
5469 5461 5453 5442 5432 5423 5415 5406 5393 5384 5374 5365 5357 5349 5339 5330 5321 5315 5307 5303 5308 5299 5280 5273 5278 5268 5265 5258 5247 5238 5231 5222 5216 5212 5209 5203 5200 5197
5448 5439 5432 5425 5417 5408 5399 5388 5377 5365 5355 5346 5338 5330 5321 5312 5301 5291 5284 5278 5273 5286 5275 5259 5258 5239 5242 5244 5234 5224 5218 5211 5205 5202 5198 5194 5191 5189
5432 5421 5414 5407 5400 5392 5382 5371 5361 5347 5338 5330 5321 5312 5303 5293 5282 5273 5264 5255 5252 5249 5247 5232 5241 5231 5218 5216 5217 5209 5203 5200 5195 5193 5189 5187 5184 5181
5416 5404 5396 5389 5381 5371 5361 5353 5341 5329 5320 5310 5303 5294 5285 5275 5266 5257 5249 5242 5233 5231 5237 5216 5214 5215 5210 5204 5197 5196 5192 5189 5187 5184 5182 5180 5177 5175
5396 5386 5378 5369 5358 5349 5340 5330 5318 5308 5299 5290 5281 5272 5264 5256 5250 5243 5237 5232 5228 5218 5214 5214 5209 5205 5199 5192 5186 5183 5183 5181 5180 5178 5175 5173 5172 5172
5373 5363 5353 5345 5335 5325 5316 5305 5294 5285 5275 5266 5257 5250 5243 5237 5231 5226 5222 5219 5218 5222 5204 5201 5202 5198 5195 5186 5179 5177 5173 5174 5173 5171 5169 5168 5168 5170
5350 5340 5330 5321 5313 5303 5292 5281 5270 5260 5251 5242 5235 5229 5223 5216 5211 5206 5201 5199 5194 5198 5203 5194 5189 5188 5186 5180 5175 5172 5169 5168 5168 5167 5165 5165 5167 5169
5330 5318 5307 5297 5289 5279 5268 5257 5247 5237 5229 5220 5212 5208 5202 5196 5191 5183 5179 5175 5174 5172 5172 5171 5171 5175 5177 5174 5171 5168 5167 5167 5166 5165 5164 5163 5167 5169
5306 5295 5284 5273 5264 5255 5244 5234 5224 5215 5205 5197 5191 5186 5177 5172 5167 5162 5158 5154 5154 5153 5153 5155 5155 5157 5168 5168 5169 5166 5165 5164 5163 5162 5163 5163 5164 5166
5281 5269 5258 5249 5240 5230 5220 5211 5201 5191 5182 5174 5167 5160 5152 5149 5145 5139 5136 5133 5132 5134 5140 5142 5143 5142 5141 5158 5160 5163 5163 5163 5162 5161 5161 5161 5161 5162
5255 5245 5234 5223 5213 5203 5194 5184 5175 5165 5157 5149 5142 5136 5130 5124 5120 5117 5115 5111 5108 5113 5120 5125 5125 5128 5135 5143 5155 5157 5160 5161 5160 5160 5159 5158 5158 5158
5224 5216 5206 5196 5187 5178 5169 5160 5151 5142 5134 5127 5121 5112 5105 5099 5098 5097 5095 5095 5095 5097 5103 5110 5113 5123 5130 5144 5155 5153 5154 5155 5157 5157 5158 5159 5157 5158
5197 5187 5177 5168 5159 5151 5142 5133 5124 5115 5106 5100 5094 5089 5083 5080 5078 5078 5076 5072 5078 5080 5086 5097 5103 5113 5125 5136 5149 5151 5150 5151 5154 5154 5155 5157 5156 5155